STARLINK-1907 (47177 NORAD) Tracking and Keplerian Element Data

This shows tracking and keplerian element data for the satellite.

Feedback or suggestion? Click here.




ElementValue
Catalog47177
NameSTARLINK-1907
Epoch Orbit180
Epoch Day60.91667824
Epoch Year2021
RAAN243.7394
Inclination53.0579
Eccentricity0.0001446
Argument of Perigee65.8979
Mean Anonmoly154.56
Mean Motion15.06994747
Decay Rate-0.00770953
L11 47177U 20088BH 21060.91667824 -.00770953 00000-0 -54383-1 0 9993
L22 47177 53.0579 243.7394 0001446 65.8979 154.5600 15.06994747 1800

Live tracking and technical data element details for STARLINK-1907 (NORAD 47177). STARLINK-1907 can be tracked NOW for your location showing map with azimuth and elevation plus other details from your city location.

Track the satellite on the map from your city or location and see movement details for azimuth, elevation, latitude, longitude, range, height, and movement on the map or in text.







IsCatalogInMostPopularTable: catalog: 47177, numindb: 38
Update: records affected: 1



GetName: 47177 STARLINK-1907

Hit Count: updated at: Tue, 02 Mar 2021 14:02:12 GMT